Torna al catalogo

VRSS-2

AttivoScienzaSSO
NORAD 42954·PAYLOAD·🇻🇪 Venezuela

Lanciato Oct 9, 2017 da Jiuquan Satellite Launch Center

Loading…

Prossimi Passaggi (prossime 24 ore)

TLE

AggiornatoSource: Space-Track

Epoca: Sep 14, 2026, 15:01 UTC

1 42954U 17060A   26257.62591468  .00000090  00000-0  18381-4 0  9995
2 42954  97.8871 291.4922 0018586 159.7927 200.4025 14.81121705481694

Traccia VRSS-2 in tempo reale con AllMySat

Download on the App Store